ISS DEB (44303 NORAD) Tracking and Keplerian Element Data

This shows tracking and keplerian element data for the satellite.

Feedback or suggestion? Click here.




ElementValue
Catalog44303
NameISS DEB
Epoch Orbit6230
Epoch Day185.80008537
Epoch Year2020
RAAN257.4126
Inclination51.6412
Eccentricity0.0005694
Argument of Perigee32.6642
Mean Anonmoly327.47
Mean Motion15.54423578
Decay Rate2.205E-05
L11 44303U 98067QA 20185.80008537 .00002205 00000-0 40165-4 0 9990
L22 44303 51.6412 257.4126 0005694 32.6642 327.4700 15.54423578 62307

Live tracking and technical data element details for ISS DEB (NORAD 44303). ISS DEB can be tracked NOW for your location showing map with azimuth and elevation plus other details from your city location.

Track the satellite on the map from your city or location and see movement details for azimuth, elevation, latitude, longitude, range, height, and movement on the map or in text.







IsCatalogInMostPopularTable: catalog: 44303, numindb: 478
Update: records affected: 1



GetName: 44303 ISS DEB

Hit Count: updated at: Sun, 05 Jul 2020 15:46:54 GMT